Dobrodošli na spletni strani vremenske postaje Senovo. Vse informacije so informativnega značaja, saj vremenska postaja ni del državne mreže meteoroloških postaj. AKTUALNIH OBVESTIL NI.


Sneg/Led Od: 21-02-2018 00:00 Do: 23-02-2018 23:59 Opozorilo za: Sneg/Led Stopnja: Rumena info button
Veter Od: 21-02-2018 00:00 Do: 22-02-2018 23:59 Opozorilo za: Veter Stopnja: Rumena info button

Pogled proti Armezu več informacij Pogled proti Armezu


Lisca več informacij Lisca


Radar strel več informacij blitzortung!


opozorilo za sneg/led več informacij rain snow radar


Obiščite še:

Template documentation
and downloads

And another site



Weather Underground, zgodovina - Tekstovno

Dnevni povzetek za November 11, 2017 Enote:  Metrično    Angleško   Obe
« Predhodni Dan
Naslednji Dan »
Dnevni Tedenski Mesečni Letni Po meri
  Višja: Nižja: Povprečje:
Temperatura: -17.8 °C -16.5 °C -14.2 °C
Točka rosišča: -17.8 °C -16.7 °C -14.8 °C
Vlažnost: Humidity % 74 % 92 %
Hitrost vetra: 0 km/h 0 km/h 1.1 km/h
Sunki vetra: 0 km/h - -
Veter:- - South
Zračni tlak: 0 hPa 34164.7 hPa -
Padavine: 0 mm    
Historical Graphs
 
 
Tabelarni podarki za November 11, 2017
Čas Temperatura Točka rosišča Zračni tlak Veter Hitrost vetra Sunki vetra Vlažnost Intenziteta padavin (urna)
-17.8 °C -17.8 °C 0 hPa Calm     Humidity % 0 mm
00:04 -15.5 °C -15.9 °C 34405.1 hPa Calm     95 % 0 mm
00:10 -15.4 °C -15.9 °C 34405.1 hPa Calm     95 % 0 mm
00:15 -15.4 °C -15.9 °C 34405.1 hPa Calm     95 % 0 mm
00:20 -15.4 °C -15.9 °C 34371.3 hPa Calm     95 % 0 mm
00:25 -15.4 °C -15.8 °C 34371.3 hPa Calm     96 % 0 mm
00:30 -15.4 °C -15.8 °C 34371.3 hPa Calm     96 % 0 mm
00:35 -15.4 °C -15.8 °C 34371.3 hPa Calm     96 % 0 mm
00:40 -15.4 °C -15.8 °C 34371.3 hPa Calm     96 % 0 mm
00:45 -15.4 °C -15.8 °C 34371.3 hPa Calm     96 % 0 mm
00:50 -15.5 °C -15.8 °C 34337.4 hPa Calm     96 % 0 mm
00:55 -15.5 °C -15.8 °C 34337.4 hPa Calm     96 % 0 mm
01:00 -15.5 °C -15.8 °C 34337.4 hPa Calm     96 % 0 mm
01:05 -15.5 °C -15.8 °C 34337.4 hPa Calm     96 % 0 mm
01:10 -15.5 °C -15.8 °C 34337.4 hPa Calm     96 % 0 mm
01:15 -15.5 °C -15.8 °C 34337.4 hPa Calm     96 % 0 mm
01:20 -15.5 °C -15.8 °C 34337.4 hPa Calm     96 % 0 mm
01:25 -15.5 °C -15.8 °C 34337.4 hPa Calm     96 % 0 mm
01:30 -15.5 °C -15.8 °C 34337.4 hPa Calm     96 % 0 mm
01:35 -15.5 °C -15.8 °C 34337.4 hPa Calm     96 % 0 mm
01:40 -15.5 °C -15.8 °C 34337.4 hPa Calm     96 % 0 mm
01:45 -15.5 °C -15.8 °C 34337.4 hPa Calm     96 % 0 mm
01:50 -15.5 °C -15.8 °C 34337.4 hPa Calm     96 % 0 mm
01:55 -15.5 °C -15.8 °C 34337.4 hPa Calm     96 % 0 mm
02:00 -15.5 °C -15.8 °C 34337.4 hPa Calm     96 % 0 mm
02:05 -15.4 °C -15.8 °C 34303.6 hPa Calm     96 % 0 mm
02:10 -15.4 °C -15.8 °C 34303.6 hPa Calm     96 % 0 mm
02:15 -15.4 °C -15.8 °C 34303.6 hPa Calm     96 % 0 mm
02:20 -15.4 °C -15.6 °C 34337.4 hPa Calm     97 % 0 mm
02:25 -15.4 °C -15.6 °C 34337.4 hPa Calm     97 % 0 mm
02:30 -15.4 °C -15.6 °C 34337.4 hPa Calm     97 % 0 mm
02:35 -15.3 °C -15.6 °C 34337.4 hPa Calm     97 % 0 mm
02:40 -15.3 °C -15.6 °C 34337.4 hPa Calm     97 % 0 mm
02:45 -15.3 °C -15.5 °C 34337.4 hPa Calm     97 % 0 mm
02:50 -15.3 °C -15.5 °C 34303.6 hPa Calm     97 % 0 mm
02:55 -15.2 °C -15.4 °C 34303.6 hPa Calm     97 % 0 mm
03:00 -15.2 °C -15.4 °C 34303.6 hPa Calm     97 % 0 mm
03:05 -15.2 °C -15.4 °C 34303.6 hPa Calm     97 % 0 mm
03:10 -15.2 °C -15.4 °C 34303.6 hPa Calm     97 % 0 mm
03:15 -15.2 °C -15.4 °C 34303.6 hPa Calm     97 % 0 mm
03:20 -15.2 °C -15.4 °C 34337.4 hPa Calm     97 % 0 mm
03:25 -15.2 °C -15.4 °C 34337.4 hPa Calm     97 % 0 mm
03:30 -15.3 °C -15.5 °C 34337.4 hPa Calm     97 % 0 mm
03:35 -15.3 °C -15.5 °C 34303.6 hPa Calm     97 % 0 mm
03:40 -15.3 °C -15.6 °C 34303.6 hPa Calm     97 % 0 mm
03:45 -15.3 °C -15.6 °C 34303.6 hPa Calm     97 % 0 mm
03:50 -15.3 °C -15.6 °C 34303.6 hPa Calm     97 % 0 mm
03:55 -15.4 °C -15.6 °C 34303.6 hPa Calm     97 % 0 mm
04:00 -15.4 °C -15.6 °C 34303.6 hPa Calm     97 % 0 mm
04:05 -15.4 °C -15.6 °C 34337.4 hPa Calm     97 % 0 mm
04:11 -15.4 °C -15.6 °C 34337.4 hPa Calm     97 % 0 mm
04:16 -15.4 °C -15.6 °C 34337.4 hPa Calm     97 % 0 mm
04:21 -15.4 °C -15.6 °C 34303.6 hPa Calm     97 % 0 mm
04:22 -15.4 °C -15.6 °C 34303.6 hPa Calm     97 % 0 mm
04:25 -15.4 °C -15.6 °C 34303.6 hPa Calm     97 % 0 mm
04:31 -15.4 °C -15.7 °C 34303.6 hPa Calm     97 % 0 mm
04:36 -15.5 °C -15.7 °C 34303.6 hPa Calm     97 % 0 mm
04:41 -15.5 °C -15.7 °C 34303.6 hPa Calm     97 % 0 mm
04:46 -15.6 °C -15.8 °C 34303.6 hPa Calm     97 % 0 mm
04:51 -15.6 °C -15.9 °C 34337.4 hPa Calm     97 % 0 mm
04:56 -15.7 °C -15.9 °C 34337.4 hPa Calm     97 % 0 mm
05:01 -15.8 °C -16 °C 34337.4 hPa Calm     97 % 0 mm
05:06 -15.8 °C -16.1 °C 34337.4 hPa Calm     97 % 0 mm
05:11 -15.9 °C -16.2 °C 34337.4 hPa Calm     97 % 0 mm
05:16 -15.9 °C -16.2 °C 34337.4 hPa Calm     97 % 0 mm
05:21 -16 °C -16.2 °C 34303.6 hPa Calm     97 % 0 mm
05:26 -16.1 °C -16.3 °C 34303.6 hPa Calm     97 % 0 mm
05:31 -16.1 °C -16.3 °C 34303.6 hPa Calm     97 % 0 mm
05:36 -16.2 °C -16.4 °C 34337.4 hPa Calm     97 % 0 mm
05:41 -16.2 °C -16.4 °C 34337.4 hPa Calm     97 % 0 mm
05:46 -16.2 °C -16.4 °C 34337.4 hPa Calm     97 % 0 mm
05:51 -16.2 °C -16.4 °C 34303.6 hPa Calm     97 % 0 mm
05:56 -16.3 °C -16.5 °C 34303.6 hPa Calm     97 % 0 mm
06:01 -16.3 °C -16.6 °C 34303.6 hPa Calm     97 % 0 mm
06:06 -16.4 °C -16.6 °C 34303.6 hPa Calm     97 % 0 mm
06:11 -16.4 °C -16.7 °C 34303.6 hPa Calm     97 % 0 mm
06:16 -16.4 °C -16.7 °C 34303.6 hPa Calm     97 % 0 mm
06:21 -16.4 °C -16.7 °C 34337.4 hPa Calm     97 % 0 mm
06:26 -16.4 °C -16.7 °C 34337.4 hPa Calm     97 % 0 mm
06:31 -16.4 °C -16.7 °C 34337.4 hPa Calm     97 % 0 mm
06:36 -16.4 °C -16.7 °C 34337.4 hPa Calm     97 % 0 mm
06:41 -16.4 °C -16.7 °C 34337.4 hPa Calm     97 % 0 mm
06:46 -16.4 °C -16.7 °C 34337.4 hPa Calm     97 % 0 mm
06:51 -16.5 °C -16.7 °C 34337.4 hPa Calm     97 % 0 mm
06:56 -16.5 °C -16.7 °C 34337.4 hPa Calm     97 % 0 mm
07:01 -16.5 °C -16.7 °C 34337.4 hPa Calm     97 % 0 mm
07:06 -16.5 °C -16.7 °C 34337.4 hPa Calm     97 % 0 mm
07:11 -16.5 °C -16.7 °C 34337.4 hPa Calm     97 % 0 mm
07:16 -16.4 °C -16.7 °C 34337.4 hPa Calm     97 % 0 mm
07:21 -16.4 °C -16.7 °C 34337.4 hPa Calm     97 % 0 mm
07:26 -16.4 °C -16.6 °C 34337.4 hPa Calm     97 % 0 mm
07:31 -16.4 °C -16.6 °C 34337.4 hPa Calm     97 % 0 mm
07:36 -16.3 °C -16.5 °C 34371.3 hPa Calm     98 % 0 mm
07:41 -16.3 °C -16.5 °C 34371.3 hPa Calm     98 % 0 mm
07:46 -16.3 °C -16.4 °C 34371.3 hPa Calm     98 % 0 mm
07:51 -16.2 °C -16.4 °C 34371.3 hPa Calm     98 % 0 mm
07:56 -16.2 °C -16.3 °C 34371.3 hPa Calm     98 % 0 mm
08:01 -16.1 °C -16.3 °C 34371.3 hPa Calm     97 % 0 mm
08:06 -16.1 °C -16.3 °C 34371.3 hPa Calm     97 % 0 mm
08:11 -16 °C -16.2 °C 34371.3 hPa Calm     98 % 0 mm
08:16 -15.9 °C -16.1 °C 34371.3 hPa Calm     98 % 0 mm
08:21 -15.9 °C -16.1 °C 34371.3 hPa Calm     98 % 0 mm
08:26 -15.8 °C -15.9 °C 34371.3 hPa Calm     98 % 0 mm
08:31 -15.8 °C -15.9 °C 34371.3 hPa Calm     98 % 0 mm
08:36 -15.8 °C -15.9 °C 34371.3 hPa Calm     98 % 0 mm
08:41 -15.8 °C -15.9 °C 34371.3 hPa Calm     98 % 0 mm
08:46 -15.6 °C -15.8 °C 34371.3 hPa Calm     98 % 0 mm
08:51 -15.6 °C -15.7 °C 34371.3 hPa Calm     98 % 0 mm
08:56 -15.6 °C -15.7 °C 34371.3 hPa Calm     98 % 0 mm
09:01 -15.5 °C -15.7 °C 34371.3 hPa Calm     98 % 0 mm
09:07 -15.5 °C -15.7 °C 34371.3 hPa Calm     98 % 0 mm
09:12 -15.4 °C -15.6 °C 34371.3 hPa Calm     98 % 0 mm
09:17 -15.3 °C -15.5 °C 34371.3 hPa Calm     98 % 0 mm
09:22 -15.3 °C -15.4 °C 34371.3 hPa ENE 1 km/h 5.6 km/h 98 % 0 mm
09:27 -15.2 °C -15.4 °C 34371.3 hPa ENE 1.3 km/h 5.6 km/h 98 % 0 mm
09:32 -15.2 °C -15.3 °C 34371.3 hPa East 0.3 km/h 3.4 km/h 98 % 0 mm
09:43 -15 °C -15.2 °C 34371.3 hPa Calm     98 % 0 mm
09:48 -14.9 °C -15.1 °C 34371.3 hPa Calm     98 % 0 mm
09:53 -14.8 °C -15 °C 34337.4 hPa ESE 0.3 km/h 5.1 km/h 98 % 0 mm
09:58 -14.7 °C -14.8 °C 34337.4 hPa SE 0.5 km/h 5.1 km/h 98 % 0 mm
10:03 -14.6 °C -14.8 °C 34337.4 hPa SE 0.8 km/h 3.4 km/h 98 % 0 mm
10:08 -14.4 °C -14.6 °C 34337.4 hPa SSW 2.3 km/h 8 km/h 98 % 0 mm
10:13 -14.2 °C -14.4 °C 34337.4 hPa SW 4.3 km/h 8.9 km/h 98 % 0 mm
10:18 -14.1 °C -14.3 °C 34337.4 hPa SSW 3.4 km/h 8.9 km/h 98 % 0 mm
10:23 -14.1 °C -14.2 °C 34337.4 hPa ESE 3.9 km/h 8.9 km/h 98 % 0 mm
10:28 -13.9 °C -14.1 °C 34337.4 hPa SE 6.3 km/h 9.3 km/h 98 % 0 mm
10:33 -13.8 °C -14 °C 34337.4 hPa SE 5.1 km/h 9.3 km/h 98 % 0 mm
10:38 -13.7 °C -13.9 °C 34337.4 hPa SE 3.7 km/h 7.6 km/h 98 % 0 mm
10:43 -13.7 °C -13.8 °C 34337.4 hPa ESE 4.2 km/h 7.6 km/h 98 % 0 mm
10:48 -13.5 °C -13.7 °C 34337.4 hPa SE 5.5 km/h 8 km/h 98 % 0 mm
10:58 -13.3 °C -13.4 °C 34337.4 hPa ESE 6.3 km/h 9.3 km/h 98 % 0 mm
11:03 -13.2 °C -13.3 °C 34337.4 hPa ESE 6.4 km/h 9.3 km/h 98 % 0 mm
11:08 -13.2 °C -13.3 °C 34337.4 hPa ESE 6.3 km/h 10.3 km/h 98 % 0 mm
11:13 -13.2 °C -13.3 °C 34337.4 hPa ESE 6.3 km/h 10.3 km/h 98 % 0 mm
11:18 -12.9 °C -13.1 °C 34337.4 hPa SE 5.5 km/h 10.3 km/h 98 % 0 mm
11:23 -12.9 °C -13.1 °C 34337.4 hPa ESE 5 km/h 8.9 km/h 98 % 0 mm
11:28 -12.8 °C -13 °C 34337.4 hPa ESE 4.7 km/h 8.9 km/h 97 % 0 mm
11:33 -12.7 °C -12.9 °C 34337.4 hPa ESE 3.9 km/h 7.6 km/h 97 % 0 mm
11:38 -12.6 °C -12.9 °C 34337.4 hPa East 1.8 km/h 6.9 km/h 97 % 0 mm
11:43 -12.4 °C -12.7 °C 34337.4 hPa ESE 1.3 km/h 6.4 km/h 97 % 0 mm
11:48 -12.3 °C -12.6 °C 34337.4 hPa ESE 3.4 km/h 8 km/h 97 % 0 mm
11:53 -12.3 °C -12.6 °C 34337.4 hPa SE 2.9 km/h 8 km/h 97 % 0 mm
11:58 -12.2 °C -12.4 °C 34337.4 hPa SE 2.1 km/h 6.9 km/h 97 % 0 mm
12:03 -12 °C -12.3 °C 34337.4 hPa ESE 3.7 km/h 7.6 km/h 97 % 0 mm
12:08 -11.9 °C -12.1 °C 34337.4 hPa ESE 4.7 km/h 7.6 km/h 97 % 0 mm
12:13 -11.8 °C -12.1 °C 34337.4 hPa SE 4.2 km/h 6.9 km/h 97 % 0 mm
12:18 -11.7 °C -12 °C 34337.4 hPa SE 2.9 km/h 6.4 km/h 96 % 0 mm
12:23 -11.6 °C -11.9 °C 34337.4 hPa NNW 1.8 km/h 6.4 km/h 96 % 0 mm
12:28 -11.6 °C -12 °C 34337.4 hPa NW 3.7 km/h 8 km/h 95 % 0 mm
12:33 -11.4 °C -11.9 °C 34337.4 hPa NW 3.9 km/h 8.9 km/h 95 % 0 mm
12:38 -11.4 °C -11.8 °C 34303.6 hPa NW 2.3 km/h 8.9 km/h 95 % 0 mm
12:43 -11.3 °C -11.8 °C 34303.6 hPa WNW 3.1 km/h 11.1 km/h 94 % 0 mm
12:48 -11.3 °C -11.8 °C 34303.6 hPa WNW 4.3 km/h 11.1 km/h 94 % 0 mm
12:53 -11.2 °C -11.8 °C 34303.6 hPa WSW 5 km/h 9.8 km/h 93 % 0 mm
12:58 -11.2 °C -11.8 °C 34303.6 hPa SSW 6.3 km/h 10.3 km/h 93 % 0 mm
13:03 -11.1 °C -11.9 °C 34303.6 hPa SSW 8.2 km/h 12.7 km/h 91 % 0 mm
13:08 -11.1 °C -12 °C 34303.6 hPa SSW 9.3 km/h 12.7 km/h 90 % 0 mm
13:13 -11.1 °C -12.1 °C 34303.6 hPa SSW 8.5 km/h 15.6 km/h 89 % 0 mm
13:18 -11.1 °C -12.1 °C 34303.6 hPa SSW 7.7 km/h 15.6 km/h 88 % 0 mm
13:23 -11.1 °C -12.3 °C 34303.6 hPa SW 6.8 km/h 15.6 km/h 86 % 0 mm
13:28 -11.1 °C -12.3 °C 34303.6 hPa SSW 4.2 km/h 9.8 km/h 86 % 0 mm
13:33 -11.1 °C -12.4 °C 34303.6 hPa SSW 4.3 km/h 9.3 km/h 85 % 0 mm
13:38 -11.1 °C -12.5 °C 34303.6 hPa SSW 7.2 km/h 14 km/h 84 % 0 mm
13:43 -11.1 °C -12.6 °C 34303.6 hPa SSW 7.6 km/h 14 km/h 83 % 0 mm
13:48 -11.1 °C -12.7 °C 34303.6 hPa SW 6.4 km/h 12.7 km/h 82 % 0 mm
13:53 -11.1 °C -12.8 °C 34269.7 hPa SW 6.8 km/h 12.2 km/h 81 % 0 mm
13:58 -11.1 °C -12.8 °C 34269.7 hPa SSW 6.8 km/h 9.3 km/h 81 % 0 mm
13:59 -11.1 °C -12.9 °C 34269.7 hPa SSW 6.8 km/h 9.3 km/h 80 % 0 mm
14:04 -11.1 °C -12.9 °C 34269.7 hPa SSW 6.9 km/h 12.2 km/h 80 % 0 mm
14:09 -11.1 °C -13 °C 34303.6 hPa SSW 7.6 km/h 12.2 km/h 79 % 0 mm
14:14 -11.1 °C -13.1 °C 34303.6 hPa SW 7.2 km/h 9.8 km/h 78 % 0 mm
14:19 -11.1 °C -13.1 °C 34303.6 hPa SW 5.1 km/h 9.3 km/h 78 % 0 mm
14:24 -11.1 °C -13.2 °C 34303.6 hPa SSW 3.1 km/h 5.6 km/h 77 % 0 mm
14:29 -11.1 °C -13.2 °C 34303.6 hPa South 1.3 km/h 5.1 km/h 77 % 0 mm
14:34 -11.1 °C -13.2 °C 34303.6 hPa South 0.5 km/h 3.4 km/h 77 % 0 mm
14:39 -11.1 °C -13.3 °C 34303.6 hPa South 0.3 km/h 3.4 km/h 76 % 0 mm
14:44 -11.1 °C -13.3 °C 34303.6 hPa SSW 0.3 km/h 5.6 km/h 76 % 0 mm
14:49 -11.1 °C -13.3 °C 34269.7 hPa SSW 0.8 km/h 5.6 km/h 76 % 0 mm
14:54 -11.1 °C -13.4 °C 34269.7 hPa SSW 2.6 km/h 8 km/h 75 % 0 mm
14:59 -11.1 °C -13.4 °C 34269.7 hPa SSW 3.7 km/h 8 km/h 75 % 0 mm
15:04 -11.1 °C -13.4 °C 34269.7 hPa SW 2.1 km/h 5.1 km/h 75 % 0 mm
15:09 -11.1 °C -13.6 °C 34269.7 hPa WSW 0.8 km/h 3.4 km/h 74 % 0 mm
15:14 -11.1 °C -13.6 °C 34269.7 hPa SW 1.3 km/h 8 km/h 74 % 0 mm
15:19 -11.1 °C -13.6 °C 34269.7 hPa SW 2.3 km/h 8 km/h 74 % 0 mm
15:24 -11.2 °C -13.7 °C 34269.7 hPa SW 2.1 km/h 6.9 km/h 74 % 0 mm
15:29 -11.2 °C -13.7 °C 34269.7 hPa SSW 2.3 km/h 6.9 km/h 74 % 0 mm
15:34 -11.3 °C -13.8 °C 34269.7 hPa SW 1.6 km/h 6.4 km/h 74 % 0 mm
15:39 -11.3 °C -13.8 °C 34269.7 hPa SW 0.5 km/h 4.2 km/h 74 % 0 mm
15:45 -11.4 °C -13.8 °C 34269.7 hPa WSW 1.6 km/h 5.6 km/h 75 % 0 mm
15:50 -11.5 °C -13.9 °C 34235.8 hPa WSW 1.6 km/h 5.6 km/h 75 % 0 mm
15:55 -11.6 °C -13.9 °C 34235.8 hPa WSW 1 km/h 4.2 km/h 75 % 0 mm
15:59 -11.7 °C -14.1 °C 34235.8 hPa SW 1 km/h 5.1 km/h 75 % 0 mm
16:05 -11.7 °C -14 °C 34235.8 hPa WSW 2.9 km/h 6.4 km/h 76 % 0 mm
16:10 -11.9 °C -14.1 °C 34235.8 hPa WSW 2.3 km/h 6.4 km/h 76 % 0 mm
16:15 -12 °C -14.1 °C 34235.8 hPa WSW 0.8 km/h 4.2 km/h 77 % 0 mm
16:20 -12.1 °C -14.3 °C 34235.8 hPa WSW 0.8 km/h 4.2 km/h 77 % 0 mm
16:25 -12.2 °C -14.3 °C 34235.8 hPa Calm     77 % 0 mm
16:30 -12.4 °C -14.4 °C 34235.8 hPa WNW 1 km/h 4.2 km/h 78 % 0 mm
16:35 -12.4 °C -14.4 °C 34269.7 hPa WNW 1 km/h 4.2 km/h 79 % 0 mm
16:40 -12.6 °C -14.5 °C 34269.7 hPa Calm     79 % 0 mm
16:45 -12.6 °C -14.4 °C 34269.7 hPa Calm     80 % 0 mm
16:50 -12.7 °C -14.6 °C 34269.7 hPa Calm     80 % 0 mm
16:55 -12.8 °C -14.6 °C 34269.7 hPa Calm     81 % 0 mm
17:00 -12.9 °C -14.7 °C 34269.7 hPa Calm     81 % 0 mm
17:05 -13.1 °C -14.7 °C 34269.7 hPa Calm     82 % 0 mm
17:10 -13.1 °C -14.7 °C 34269.7 hPa Calm     82 % 0 mm
17:15 -13.2 °C -14.8 °C 34269.7 hPa Calm     82 % 0 mm
17:20 -13.2 °C -14.7 °C 34269.7 hPa Calm     83 % 0 mm
17:25 -13.3 °C -14.8 °C 34269.7 hPa Calm     83 % 0 mm
17:30 -13.3 °C -14.8 °C 34269.7 hPa Calm     84 % 0 mm
17:35 -13.4 °C -14.8 °C 34269.7 hPa Calm     84 % 0 mm
17:40 -13.4 °C -14.8 °C 34269.7 hPa Calm     85 % 0 mm
17:45 -13.4 °C -14.8 °C 34269.7 hPa Calm     85 % 0 mm
17:50 -13.6 °C -14.9 °C 34269.7 hPa Calm     85 % 0 mm
17:51 -13.6 °C -14.9 °C 34269.7 hPa Calm     85 % 0 mm
17:56 -13.6 °C -14.8 °C 34269.7 hPa Calm     86 % 0 mm
18:01 -13.7 °C -14.9 °C 34269.7 hPa Calm     86 % 0 mm
18:06 -13.7 °C -14.9 °C 34269.7 hPa Calm     86 % 0 mm
18:11 -13.7 °C -14.9 °C 34269.7 hPa Calm     86 % 0 mm
18:16 -13.8 °C -14.9 °C 34269.7 hPa Calm     87 % 0 mm
18:21 -13.8 °C -14.9 °C 34269.7 hPa Calm     87 % 0 mm
18:26 -13.8 °C -14.9 °C 34269.7 hPa Calm     87 % 0 mm
18:31 -13.9 °C -15 °C 34269.7 hPa Calm     87 % 0 mm
18:36 -13.9 °C -15 °C 34269.7 hPa Calm     87 % 0 mm
18:41 -13.9 °C -14.9 °C 34269.7 hPa Calm     88 % 0 mm
18:46 -13.9 °C -14.9 °C 34269.7 hPa Calm     88 % 0 mm
18:51 -13.9 °C -14.9 °C 34269.7 hPa Calm     89 % 0 mm
18:56 -13.9 °C -14.9 °C 34269.7 hPa Calm     89 % 0 mm
19:01 -14 °C -14.9 °C 34269.7 hPa Calm     89 % 0 mm
19:06 -14 °C -14.8 °C 34269.7 hPa Calm     90 % 0 mm
19:11 -14 °C -14.8 °C 34269.7 hPa Calm     90 % 0 mm
19:16 -14.1 °C -14.9 °C 34269.7 hPa North 0.3 km/h   90 % 0 mm
19:21 -14.1 °C -14.9 °C 34235.8 hPa North 0.3 km/h   90 % 0 mm
19:26 -14.1 °C -14.9 °C 34235.8 hPa Calm     90 % 0 mm
19:31 -14.1 °C -14.8 °C 34235.8 hPa Calm     91 % 0 mm
19:36 -14.1 °C -14.8 °C 34235.8 hPa Calm     91 % 0 mm
19:41 -14.1 °C -14.8 °C 34235.8 hPa Calm     91 % 0 mm
19:46 -14.1 °C -14.9 °C 34235.8 hPa Calm     91 % 0 mm
19:51 -14.1 °C -14.9 °C 34198.6 hPa Calm     91 % 0 mm
19:56 -14.1 °C -14.9 °C 34198.6 hPa Calm     91 % 0 mm
20:01 -14.1 °C -14.8 °C 34198.6 hPa Calm     92 % 0 mm
20:06 -14.1 °C -14.8 °C 34235.8 hPa Calm     92 % 0 mm
20:11 -14.1 °C -14.8 °C 34235.8 hPa Calm     92 % 0 mm
20:16 -14.1 °C -14.8 °C 34235.8 hPa Calm     92 % 0 mm
20:19 -14.2 °C -14.8 °C 34235.8 hPa Calm     92 % 0 mm
20:22 -14.2 °C -14.8 °C 34198.6 hPa Calm     92 % 0 mm
20:27 -14.2 °C -14.8 °C 34198.6 hPa Calm     92 % 0 mm
20:32 -14.2 °C -14.8 °C 34198.6 hPa Calm     93 % 0 mm
20:37 -14.2 °C -14.8 °C 34198.6 hPa Calm     93 % 0 mm
20:42 -14.2 °C -14.8 °C 34198.6 hPa Calm     93 % 0 mm
20:47 -14.2 °C -14.8 °C 34198.6 hPa WSW 0.3 km/h 3.4 km/h 93 % 0 mm
20:52 -14.2 °C -14.8 °C 34198.6 hPa WSW 0.3 km/h 3.4 km/h 93 % 0 mm
20:57 -14.2 °C -14.8 °C 34198.6 hPa Calm     93 % 0 mm
21:02 -14.2 °C -14.8 °C 34198.6 hPa Calm     93 % 0 mm
21:07 -14.2 °C -14.8 °C 34164.7 hPa Calm     93 % 0 mm
21:12 -14.3 °C -14.8 °C 34164.7 hPa Calm     93 % 0 mm
21:17 -14.3 °C -14.8 °C 34164.7 hPa Calm     93 % 0 mm
21:22 -14.3 °C -14.8 °C 34198.6 hPa Calm     94 % 0 mm
21:32 -14.3 °C -14.8 °C 34198.6 hPa Calm     94 % 0 mm
21:37 -14.4 °C -14.9 °C 34198.6 hPa Calm     94 % 0 mm
21:43 -14.4 °C -14.9 °C 34198.6 hPa Calm     94 % 0 mm
21:48 -14.4 °C -14.9 °C 34198.6 hPa Calm     94 % 0 mm
21:53 -14.4 °C -14.9 °C 34198.6 hPa Calm     94 % 0 mm
21:58 -14.4 °C -14.9 °C 34198.6 hPa Calm     94 % 0 mm
22:03 -14.4 °C -14.9 °C 34198.6 hPa Calm     94 % 0 mm
22:08 -14.4 °C -14.9 °C 34198.6 hPa Calm     94 % 0 mm
22:13 -14.5 °C -14.9 °C 34198.6 hPa Calm     95 % 0 mm
22:18 -14.5 °C -14.9 °C 34198.6 hPa Calm     95 % 0 mm
22:23 -14.5 °C -14.9 °C 34198.6 hPa Calm     95 % 0 mm
22:28 -14.5 °C -14.9 °C 34198.6 hPa Calm     95 % 0 mm
22:33 -14.5 °C -14.9 °C 34198.6 hPa Calm     95 % 0 mm
22:38 -14.6 °C -14.9 °C 34198.6 hPa Calm     95 % 0 mm
22:43 -14.6 °C -14.9 °C 34198.6 hPa Calm     95 % 0 mm
22:48 -14.6 °C -14.9 °C 34198.6 hPa Calm     95 % 0 mm
22:53 -14.6 °C -15.1 °C 34198.6 hPa Calm     95 % 0 mm
22:58 -14.6 °C -15.1 °C 34198.6 hPa Calm     95 % 0 mm
23:03 -14.7 °C -15.1 °C 34198.6 hPa Calm     95 % 0 mm
23:08 -14.7 °C -15.1 °C 34198.6 hPa Calm     95 % 0 mm
23:13 -14.8 °C -15.2 °C 34198.6 hPa Calm     95 % 0 mm
23:18 -14.8 °C -15.2 °C 34198.6 hPa Calm     95 % 0 mm
23:23 -14.8 °C -15.2 °C 34164.7 hPa Calm     95 % 0 mm
23:28 -14.9 °C -15.3 °C 34164.7 hPa Calm     95 % 0 mm
23:33 -14.9 °C -15.3 °C 34164.7 hPa Calm     95 % 0 mm
23:38 -15 °C -15.4 °C 34164.7 hPa Calm     95 % 0 mm
23:43 -15 °C -15.4 °C 34164.7 hPa Calm     95 % 0 mm
23:48 -15 °C -15.4 °C 34164.7 hPa NW 0.5 km/h 6.4 km/h 95 % 0 mm
23:53 -15 °C -15.4 °C 34164.7 hPa NW 0.3 km/h 6.4 km/h 95 % 0 mm
23:58 -15 °C -15.4 °C 34164.7 hPa Calm   2.3 km/h 95 % 0 mm
Vremenska postaja Senovo
Podatki zbrani iz Weather Underground - 3 mb

Script developed by  Jim McMurry - jmcmurry@mwt.net Adapted for the template by  Wim van der Kuil - Leuven-Template.eu

Vremenski podatki so objavljeni na:

European Weather Network

WeatherCloud

Weather Underground

AWEKAS

HAMweather, WeatherForYou, PWS Weather

MapView

Geostik

Slovenia weather network

Oprema, ki se uporablja:

Vremenski program
Cumulus

Vremenski server
Asus

Cumulus

Asus